Iberica Hav — C6YI3 — position and weather

sailwx.info

Track history (hours):
 
Tides and Currents Weather Stations Pressure Air Temp Water Temp Dewpoint Dewpoint Depression Visibility Wind Speed Wind Dir Waves Ship Positions

Iberica Hav

Last reported at 2014-Jul-30 14:33 UTC. Time now 2014-Jul-31 01:25 UTC.
Position N 58°06' E 006°25'.

Length 88 m; draft 4.4 m.

Type: Cargo ship. MMSI: 311034400.

Date/timePositionNaut miles runAvg speedWind from/ knotsBaromVisibWave heightAir tempDewpointWater temp
2014-Jul-30 14:33N 58°06' E 006°25'8 7.4
2014-Jul-30 13:29N 58°13' E 006°16'7 7.8
2014-Jul-30 12:33N 58°19' E 006°10'1110.7
2014-Jul-30 11:33N 58°25' E 005°52'4 0.5
2014-Jul-30 03:21N 58°29' E 005°53'0 0.0
2014-Jul-30 01:26N 58°29' E 005°53'0 0.0
2014-Jul-29 21:27N 58°29' E 005°53'0 0.0
2014-Jul-29 18:11N 58°29' E 005°53'0 0.0
2014-Jul-29 17:20N 58°29' E 005°53'0 0.0
2014-Jul-29 16:32N 58°29' E 005°53'5 5.2
2014-Jul-29 15:33N 58°25' E 005°46'2 1.7
2014-Jul-29 14:33N 58°25' E 005°43'6 5.9
2014-Jul-29 13:33N 58°30' E 005°36'24 8.1
2014-Jul-29 10:33N 58°51' E 005°11'  
2014-Jul-26 09:33N 58°04' W 000°23'8 7.8
2014-Jul-26 08:33N 57°58' W 000°34'18 8.5
2014-Jul-26 06:26N 57°45' W 000°57'8 8.9
2014-Jul-26 05:33N 57°40' W 001°07'10 7.9
2014-Jul-26 04:17N 57°33' W 001°21'5 7.4
2014-Jul-26 03:33N 57°29' W 001°28'7 6.9
2014-Jul-26 02:30N 57°23' W 001°37'7 6.5
2014-Jul-26 01:24N 57°18' W 001°46'14 1.0
2014-Jul-25 11:23N 57°09' W 002°05'0 0.0
2014-Jul-25 09:28N 57°09' W 002°05'0 0.0
2014-Jul-25 08:28N 57°09' W 002°05'0 0.0
2014-Jul-25 07:33N 57°09' W 002°05'0 0.0
2014-Jul-25 06:27N 57°09' W 002°05'0 0.0
2014-Jul-25 05:08N 57°09' W 002°05'0 0.0
2014-Jul-25 04:32N 57°09' W 002°05'0 0.0
2014-Jul-25 03:32N 57°09' W 002°05'0 0.0
2014-Jul-25 02:31N 57°09' W 002°05'0 0.0
2014-Jul-25 01:25N 57°09' W 002°05'0 0.0
2014-Jul-25 00:30N 57°09' W 002°05'0 0.0
2014-Jul-24 23:30N 57°09' W 002°05'0 0.0
2014-Jul-24 22:29N 57°09' W 002°05'0 0.0
2014-Jul-24 21:29N 57°09' W 002°05'0 0.0
2014-Jul-24 20:23N 57°09' W 002°05'130 8.1
2014-Jul-24 04:16N 55°11' W 000°26'6 8.7
2014-Jul-24 03:33N 55°05' W 000°21'9 8.4
2014-Jul-24 02:29N 54°57' W 000°15'7 8.1
2014-Jul-24 01:33N 54°50' W 000°10'10 8.0
2014-Jul-24 00:17N 54°41' W 000°02'6 8.2
2014-Jul-23 23:33N 54°35' E 000°02'9 8.7
2014-Jul-23 22:33N 54°27' E 000°08'9 9.2
2014-Jul-23 21:33N 54°19' E 000°15'10 9.6
2014-Jul-23 20:28N 54°10' E 000°23'9 9.6
2014-Jul-23 19:33N 54°02' E 000°29'9 9.4
2014-Jul-23 18:33N 53°54' E 000°37'9 9.0
2014-Jul-23 17:33N 53°46' E 000°45'10 8.3
2014-Jul-23 16:22N 53°37' E 000°53'6 7.6
2014-Jul-23 15:33N 53°32' E 000°58'26 8.2
2014-Jul-23 12:24N 53°09' E 001°20'910.1
2014-Jul-23 11:32N 53°02' E 001°28'1010.7
2014-Jul-23 10:33N 52°54' E 001°39'82 7.9
2014-Jul-23 00:12N 51°48' E 002°58'5 8.2
2014-Jul-22 23:33N 51°47' E 003°07'8 8.2
2014-Jul-22 22:32N 51°42' E 003°18'9 8.7
2014-Jul-22 21:31N 51°35' E 003°24'8 8.7
2014-Jul-22 20:33N 51°27' E 003°31'6 5.9
2014-Jul-22 19:31N 51°28' E 003°41'0 0.0
2014-Jul-22 18:31N 51°28' E 003°41'0 0.0
2014-Jul-22 17:33N 51°28' E 003°41'0 0.0
2014-Jul-22 16:27N 51°28' E 003°41'0 0.0
2014-Jul-22 15:23N 51°28' E 003°41'0 0.0
2014-Jul-22 14:20N 51°28' E 003°41'0 0.0
2014-Jul-22 13:32N 51°28' E 003°41'0 0.0
2014-Jul-22 12:28N 51°28' E 003°41'0 0.0
2014-Jul-22 11:28N 51°28' E 003°41'0 0.0
2014-Jul-22 10:33N 51°28' E 003°41'0 0.0
2014-Jul-22 09:33N 51°28' E 003°41'0 0.0
2014-Jul-22 08:32N 51°28' E 003°41'0 0.0
2014-Jul-22 07:32N 51°28' E 003°41'0 0.0
2014-Jul-22 06:29N 51°28' E 003°41'0 0.0
2014-Jul-22 05:31N 51°28' E 003°41'0 0.0
2014-Jul-22 04:31N 51°28' E 003°41'0 0.0
2014-Jul-22 03:33N 51°28' E 003°41'0 0.0
2014-Jul-22 02:33N 51°28' E 003°41'0 0.0
2014-Jul-22 01:29N 51°28' E 003°41'0 0.0
2014-Jul-22 00:23N 51°28' E 003°41'0 0.0
2014-Jul-21 23:32N 51°28' E 003°41'0 0.0
2014-Jul-21 22:31N 51°28' E 003°41'0 0.0
2014-Jul-21 21:31N 51°28' E 003°41'0 0.0
2014-Jul-21 20:24N 51°28' E 003°41'0 0.0
2014-Jul-21 20:15N 51°28' E 003°41'0 0.0
2014-Jul-21 19:30N 51°28' E 003°41'0 0.0
2014-Jul-21 18:32N 51°28' E 003°41'0 0.0
2014-Jul-21 17:32N 51°28' E 003°41'0 0.0
2014-Jul-21 16:32N 51°28' E 003°41'0 0.0
2014-Jul-21 15:31N 51°28' E 003°41'0 0.0
2014-Jul-21 14:31N 51°28' E 003°41'0 0.0
2014-Jul-21 13:27N 51°28' E 003°41'0 0.0
2014-Jul-21 12:33N 51°28' E 003°41'0 0.0
2014-Jul-21 11:23N 51°28' E 003°41'0 0.0
2014-Jul-21 10:29N 51°28' E 003°41'0 0.0
2014-Jul-21 09:28N 51°28' E 003°41'0 0.0
2014-Jul-21 08:28N 51°28' E 003°41'0 0.0
2014-Jul-21 07:28N 51°28' E 003°41'0 0.0
2014-Jul-21 06:33N 51°28' E 003°41'0 0.0
2014-Jul-21 05:33N 51°28' E 003°41'0 0.0
2014-Jul-21 04:32N 51°28' E 003°41'0 0.0
2014-Jul-21 03:32N 51°28' E 003°41'0 0.0
2014-Jul-21 02:31N 51°28' E 003°41'0 0.0
2014-Jul-21 01:31N 51°28' E 003°41'0 0.0
2014-Jul-21 00:25N 51°28' E 003°41'0 0.0
2014-Jul-20 23:30N 51°28' E 003°41'0 0.0
2014-Jul-20 22:30N 51°28' E 003°41'0 0.0
2014-Jul-20 21:32N 51°28' E 003°41'0 0.0
2014-Jul-20 20:29N 51°28' E 003°41'0 0.0
2014-Jul-20 19:28N 51°28' E 003°41'0 0.0
2014-Jul-20 18:25N 51°28' E 003°41'0 0.1
2014-Jul-20 17:28N 51°28' E 003°41'0 0.1
2014-Jul-20 16:27N 51°28' E 003°41'0 0.0
2014-Jul-20 15:33N 51°28' E 003°41'  
Track history (hours):
 
Tides and Currents Weather Stations Pressure Air Temp Water Temp Dewpoint Dewpoint Depression Visibility Wind Speed Wind Dir Waves Ship Positions

Iberica Hav

Last reported at 2014-Jul-30 14:33 UTC. Time now 2014-Jul-31 01:25 UTC.
Position N 58°06' E 006°25'.

Length 88 m; draft 4.4 m.

Type: Cargo ship. MMSI: 311034400.

Date/timePositionNaut miles runAvg speedWind from/ knotsBaromVisibWave heightAir tempDewpointWater temp
2014-Jul-30 14:33N 58°06' E 006°25'8 7.4
2014-Jul-30 13:29N 58°13' E 006°16'7 7.8
2014-Jul-30 12:33N 58°19' E 006°10'1110.7
2014-Jul-30 11:33N 58°25' E 005°52'4 0.5
2014-Jul-30 03:21N 58°29' E 005°53'0 0.0
2014-Jul-30 01:26N 58°29' E 005°53'0 0.0
2014-Jul-29 21:27N 58°29' E 005°53'0 0.0
2014-Jul-29 18:11N 58°29' E 005°53'0 0.0
2014-Jul-29 17:20N 58°29' E 005°53'0 0.0
2014-Jul-29 16:32N 58°29' E 005°53'5 5.2
2014-Jul-29 15:33N 58°25' E 005°46'2 1.7
2014-Jul-29 14:33N 58°25' E 005°43'6 5.9
2014-Jul-29 13:33N 58°30' E 005°36'24 8.1
2014-Jul-29 10:33N 58°51' E 005°11'  
2014-Jul-26 09:33N 58°04' W 000°23'8 7.8
2014-Jul-26 08:33N 57°58' W 000°34'18 8.5
2014-Jul-26 06:26N 57°45' W 000°57'8 8.9
2014-Jul-26 05:33N 57°40' W 001°07'10 7.9
2014-Jul-26 04:17N 57°33' W 001°21'5 7.4
2014-Jul-26 03:33N 57°29' W 001°28'7 6.9
2014-Jul-26 02:30N 57°23' W 001°37'7 6.5
2014-Jul-26 01:24N 57°18' W 001°46'14 1.0
2014-Jul-25 11:23N 57°09' W 002°05'0 0.0
2014-Jul-25 09:28N 57°09' W 002°05'0 0.0
2014-Jul-25 08:28N 57°09' W 002°05'0 0.0
2014-Jul-25 07:33N 57°09' W 002°05'0 0.0
2014-Jul-25 06:27N 57°09' W 002°05'0 0.0
2014-Jul-25 05:08N 57°09' W 002°05'0 0.0
2014-Jul-25 04:32N 57°09' W 002°05'0 0.0
2014-Jul-25 03:32N 57°09' W 002°05'0 0.0
2014-Jul-25 02:31N 57°09' W 002°05'0 0.0
2014-Jul-25 01:25N 57°09' W 002°05'0 0.0
2014-Jul-25 00:30N 57°09' W 002°05'0 0.0
2014-Jul-24 23:30N 57°09' W 002°05'0 0.0
2014-Jul-24 22:29N 57°09' W 002°05'0 0.0
2014-Jul-24 21:29N 57°09' W 002°05'0 0.0
2014-Jul-24 20:23N 57°09' W 002°05'130 8.1
2014-Jul-24 04:16N 55°11' W 000°26'6 8.7
2014-Jul-24 03:33N 55°05' W 000°21'9 8.4
2014-Jul-24 02:29N 54°57' W 000°15'7 8.1
2014-Jul-24 01:33N 54°50' W 000°10'10 8.0
2014-Jul-24 00:17N 54°41' W 000°02'6 8.2
2014-Jul-23 23:33N 54°35' E 000°02'9 8.7
2014-Jul-23 22:33N 54°27' E 000°08'9 9.2
2014-Jul-23 21:33N 54°19' E 000°15'10 9.6
2014-Jul-23 20:28N 54°10' E 000°23'9 9.6
2014-Jul-23 19:33N 54°02' E 000°29'9 9.4
2014-Jul-23 18:33N 53°54' E 000°37'9 9.0
2014-Jul-23 17:33N 53°46' E 000°45'10 8.3
2014-Jul-23 16:22N 53°37' E 000°53'6 7.6
2014-Jul-23 15:33N 53°32' E 000°58'26 8.2
2014-Jul-23 12:24N 53°09' E 001°20'910.1
2014-Jul-23 11:32N 53°02' E 001°28'1010.7
2014-Jul-23 10:33N 52°54' E 001°39'82 7.9
2014-Jul-23 00:12N 51°48' E 002°58'5 8.2
2014-Jul-22 23:33N 51°47' E 003°07'8 8.2
2014-Jul-22 22:32N 51°42' E 003°18'9 8.7
2014-Jul-22 21:31N 51°35' E 003°24'8 8.7
2014-Jul-22 20:33N 51°27' E 003°31'6 5.9
2014-Jul-22 19:31N 51°28' E 003°41'0 0.0
2014-Jul-22 18:31N 51°28' E 003°41'0 0.0
2014-Jul-22 17:33N 51°28' E 003°41'0 0.0
2014-Jul-22 16:27N 51°28' E 003°41'0 0.0
2014-Jul-22 15:23N 51°28' E 003°41'0 0.0
2014-Jul-22 14:20N 51°28' E 003°41'0 0.0
2014-Jul-22 13:32N 51°28' E 003°41'0 0.0
2014-Jul-22 12:28N 51°28' E 003°41'0 0.0
2014-Jul-22 11:28N 51°28' E 003°41'0 0.0
2014-Jul-22 10:33N 51°28' E 003°41'0 0.0
2014-Jul-22 09:33N 51°28' E 003°41'0 0.0
2014-Jul-22 08:32N 51°28' E 003°41'0 0.0
2014-Jul-22 07:32N 51°28' E 003°41'0 0.0
2014-Jul-22 06:29N 51°28' E 003°41'0 0.0
2014-Jul-22 05:31N 51°28' E 003°41'0 0.0
2014-Jul-22 04:31N 51°28' E 003°41'0 0.0
2014-Jul-22 03:33N 51°28' E 003°41'0 0.0
2014-Jul-22 02:33N 51°28' E 003°41'0 0.0
2014-Jul-22 01:29N 51°28' E 003°41'0 0.0
2014-Jul-22 00:23N 51°28' E 003°41'0 0.0
2014-Jul-21 23:32N 51°28' E 003°41'0 0.0
2014-Jul-21 22:31N 51°28' E 003°41'0 0.0
2014-Jul-21 21:31N 51°28' E 003°41'0 0.0
2014-Jul-21 20:24N 51°28' E 003°41'0 0.0
2014-Jul-21 20:15N 51°28' E 003°41'0 0.0
2014-Jul-21 19:30N 51°28' E 003°41'0 0.0
2014-Jul-21 18:32N 51°28' E 003°41'0 0.0
2014-Jul-21 17:32N 51°28' E 003°41'0 0.0
2014-Jul-21 16:32N 51°28' E 003°41'0 0.0
2014-Jul-21 15:31N 51°28' E 003°41'0 0.0
2014-Jul-21 14:31N 51°28' E 003°41'0 0.0
2014-Jul-21 13:27N 51°28' E 003°41'0 0.0
2014-Jul-21 12:33N 51°28' E 003°41'0 0.0
2014-Jul-21 11:23N 51°28' E 003°41'0 0.0
2014-Jul-21 10:29N 51°28' E 003°41'0 0.0
2014-Jul-21 09:28N 51°28' E 003°41'0 0.0
2014-Jul-21 08:28N 51°28' E 003°41'0 0.0
2014-Jul-21 07:28N 51°28' E 003°41'0 0.0
2014-Jul-21 06:33N 51°28' E 003°41'0 0.0
2014-Jul-21 05:33N 51°28' E 003°41'0 0.0
2014-Jul-21 04:32N 51°28' E 003°41'0 0.0
2014-Jul-21 03:32N 51°28' E 003°41'0 0.0
2014-Jul-21 02:31N 51°28' E 003°41'0 0.0
2014-Jul-21 01:31N 51°28' E 003°41'0 0.0
2014-Jul-21 00:25N 51°28' E 003°41'0 0.0
2014-Jul-20 23:30N 51°28' E 003°41'0 0.0
2014-Jul-20 22:30N 51°28' E 003°41'0 0.0
2014-Jul-20 21:32N 51°28' E 003°41'0 0.0
2014-Jul-20 20:29N 51°28' E 003°41'0 0.0
2014-Jul-20 19:28N 51°28' E 003°41'0 0.0
2014-Jul-20 18:25N 51°28' E 003°41'0 0.1
2014-Jul-20 17:28N 51°28' E 003°41'0 0.1
2014-Jul-20 16:27N 51°28' E 003°41'0 0.0
2014-Jul-20 15:33N 51°28' E 003°41'  

Dump ship's entire track history